GLO1984 SBGL-SBFL

Flight info

Callsign GLO1984
Flight time 1h 12m
Altitude 36000
Route BITAK UN857 EGDED
Aircraft B737/M-SDE2E3FGHIRWXY/LB1

Departure

Time 2026-04-29 19:25
Airport Rio Galeão – Tom Jobim International Airport (SBGL)

Arrival

Time 2026-04-29 20:38
Airport Hercílio Luz International Airport (SBFL)
Time Latitude Longitude Altitude Speed Heading
2026-04-29 18:50 -22.81518 -43.24789 29 ft 0 kts 38°
2026-04-29 19:15 -22.81523 -43.24793 28 ft 4 kts 40°
2026-04-29 19:15 -22.81543 -43.24813 29 ft 4 kts 49°
2026-04-29 19:15 -22.81560 -43.24834 28 ft 4 kts 28°
2026-04-29 19:15 -22.81572 -43.24837 27 ft 1 kts 330°
2026-04-29 19:16 -22.81575 -43.24835 27 ft 0 kts 330°
2026-04-29 19:18 -22.81573 -43.24836 27 ft 1 kts 330°
2026-04-29 19:18 -22.81547 -43.24853 28 ft 6 kts 329°
2026-04-29 19:18 -22.81509 -43.24905 26 ft 11 kts 301°
2026-04-29 19:19 -22.81464 -43.24989 27 ft 15 kts 300°
2026-04-29 19:19 -22.81408 -43.25090 27 ft 16 kts 303°
2026-04-29 19:19 -22.81335 -43.25175 25 ft 15 kts 307°
2026-04-29 19:19 -22.81277 -43.25264 28 ft 14 kts 307°
2026-04-29 19:20 -22.81206 -43.25337 25 ft 14 kts 324°
2026-04-29 19:20 -22.81122 -43.25377 25 ft 13 kts 346°
2026-04-29 19:20 -22.81035 -43.25386 28 ft 13 kts
2026-04-29 19:20 -22.80957 -43.25405 25 ft 12 kts 303°
2026-04-29 19:21 -22.80922 -43.25487 29 ft 12 kts 295°
2026-04-29 19:21 -22.80887 -43.25565 26 ft 11 kts 295°
2026-04-29 19:21 -22.80848 -43.25638 27 ft 11 kts 304°
2026-04-29 19:21 -22.80793 -43.25686 27 ft 11 kts 355°
2026-04-29 19:22 -22.80725 -43.25651 27 ft 12 kts 36°
2026-04-29 19:22 -22.80653 -43.25597 28 ft 13 kts 34°
2026-04-29 19:22 -22.80581 -43.25541 29 ft 13 kts 35°
2026-04-29 19:22 -22.80500 -43.25552 27 ft 12 kts 327°
2026-04-29 19:23 -22.80440 -43.25598 29 ft 10 kts 326°
2026-04-29 19:23 -22.80373 -43.25613 27 ft 10 kts 19°
2026-04-29 19:23 -22.80318 -43.25569 27 ft 10 kts 39°
2026-04-29 19:23 -22.80265 -43.25526 28 ft 9 kts 37°
2026-04-29 19:24 -22.80209 -43.25486 27 ft 10 kts 26°
2026-04-29 19:24 -22.80159 -43.25421 27 ft 16 kts 72°
2026-04-29 19:24 -22.80073 -43.25086 27 ft 78 kts 74°
2026-04-29 19:24 -22.79874 -43.24312 27 ft 132 kts 74°
2026-04-29 19:25 -22.79590 -43.23202 32 ft 171 kts 74°
2026-04-29 19:25 -22.79236 -43.21942 492 ft 175 kts 74°
2026-04-29 19:25 -22.78897 -43.20595 796 ft 193 kts 79°
2026-04-29 19:25 -22.78591 -43.19159 1325 ft 205 kts 77°
2026-04-29 19:26 -22.78252 -43.17569 1593 ft 228 kts 77°
2026-04-29 19:26 -22.77888 -43.15820 2040 ft 245 kts 79°
2026-04-29 19:26 -22.77550 -43.14017 2939 ft 240 kts 78°
2026-04-29 19:26 -22.77263 -43.12233 3779 ft 244 kts 88°
2026-04-29 19:27 -22.77686 -43.10384 4162 ft 269 kts 120°
2026-04-29 19:27 -22.79073 -43.09016 4854 ft 275 kts 155°
2026-04-29 19:27 -22.80952 -43.08545 5567 ft 281 kts 176°
2026-04-29 19:27 -22.82916 -43.08514 6413 ft 283 kts 181°
2026-04-29 19:28 -22.84894 -43.08582 7203 ft 287 kts 182°
2026-04-29 19:28 -22.86907 -43.08661 8015 ft 291 kts 182°
2026-04-29 19:28 -22.88923 -43.08729 8978 ft 291 kts 181°
2026-04-29 19:28 -22.90964 -43.08784 9836 ft 296 kts 181°
2026-04-29 19:29 -22.93030 -43.08830 10463 ft 310 kts 181°
2026-04-29 19:29 -22.95314 -43.08875 10646 ft 338 kts 181°
2026-04-29 19:29 -22.97439 -43.08928 11057 ft 350 kts 184°
2026-04-29 19:29 -22.99837 -43.09470 11733 ft 356 kts 202°
2026-04-29 19:30 -23.02016 -43.10734 12521 ft 357 kts 218°
2026-04-29 19:30 -23.03979 -43.12398 13314 ft 360 kts 221°
2026-04-29 19:30 -23.05926 -43.14134 14023 ft 365 kts 222°
2026-04-29 19:30 -23.07889 -43.15901 14726 ft 368 kts 223°
2026-04-29 19:31 -23.09873 -43.17677 15463 ft 371 kts 223°
2026-04-29 19:31 -23.11878 -43.19458 16179 ft 374 kts 223°
2026-04-29 19:31 -23.13910 -43.21252 16906 ft 378 kts 223°
2026-04-29 19:31 -23.15967 -43.23061 17616 ft 381 kts 223°
2026-04-29 19:32 -23.18037 -43.24878 18323 ft 384 kts 224°
2026-04-29 19:32 -23.20127 -43.26712 18908 ft 388 kts 224°
2026-04-29 19:32 -23.22233 -43.28559 19524 ft 390 kts 224°
2026-04-29 19:32 -23.24352 -43.30419 20119 ft 393 kts 224°
2026-04-29 19:33 -23.26486 -43.32293 20707 ft 396 kts 224°
2026-04-29 19:33 -23.28635 -43.34181 21281 ft 398 kts 224°
2026-04-29 19:33 -23.30799 -43.36082 21851 ft 401 kts 224°
2026-04-29 19:33 -23.32978 -43.37998 22412 ft 404 kts 225°
2026-04-29 19:34 -23.35176 -43.39916 22971 ft 407 kts 225°
2026-04-29 19:34 -23.37407 -43.41832 23498 ft 410 kts 224°
2026-04-29 19:34 -23.39661 -43.43757 23932 ft 413 kts 224°
2026-04-29 19:34 -23.41928 -43.45691 24387 ft 415 kts 224°
2026-04-29 19:35 -23.44201 -43.47633 24845 ft 416 kts 224°
2026-04-29 19:35 -23.46481 -43.49586 25280 ft 418 kts 224°
2026-04-29 19:35 -23.48772 -43.51551 25721 ft 420 kts 224°
2026-04-29 19:35 -23.51071 -43.53525 26140 ft 422 kts 224°
2026-04-29 19:36 -23.53385 -43.55514 26570 ft 424 kts 224°
2026-04-29 19:36 -23.55705 -43.57508 26989 ft 426 kts 224°
2026-04-29 19:36 -23.58039 -43.59515 27403 ft 428 kts 224°
2026-04-29 19:36 -23.60383 -43.61532 27812 ft 430 kts 224°
2026-04-29 19:37 -23.62733 -43.63559 28218 ft 431 kts 225°
2026-04-29 19:37 -23.64235 -43.64973 28481 ft 430 kts 229°
2026-04-29 19:37 -23.67116 -43.68002 28995 ft 430 kts 231°
2026-04-29 19:37 -23.69230 -43.70319 29389 ft 432 kts 231°
2026-04-29 19:38 -23.71341 -43.72641 29920 ft 430 kts 231°
2026-04-29 19:38 -23.73444 -43.74941 30469 ft 426 kts 231°
2026-04-29 19:38 -23.75538 -43.77213 30966 ft 424 kts 231°
2026-04-29 19:38 -23.77636 -43.79481 31397 ft 424 kts 231°
2026-04-29 19:39 -23.79734 -43.81741 31813 ft 424 kts 231°
2026-04-29 19:39 -23.81807 -43.83972 32269 ft 423 kts 231°
2026-04-29 19:39 -23.83902 -43.86226 32715 ft 423 kts 231°
2026-04-29 19:39 -23.86020 -43.88506 33228 ft 420 kts 231°
2026-04-29 19:40 -23.88081 -43.90721 33962 ft 412 kts 232°
2026-04-29 19:40 -23.90084 -43.92877 34408 ft 409 kts 232°
2026-04-29 19:40 -23.92111 -43.95067 34699 ft 411 kts 232°
2026-04-29 19:40 -23.94147 -43.97268 34988 ft 412 kts 232°
2026-04-29 19:41 -23.96181 -43.99465 35346 ft 410 kts 232°
2026-04-29 19:41 -23.98209 -44.01654 35649 ft 410 kts 232°
2026-04-29 19:41 -24.00253 -44.03866 35716 ft 417 kts 232°
2026-04-29 19:42 -24.04415 -44.08368 35940 ft 421 kts 232°
2026-04-29 19:42 -24.08613 -44.12910 35984 ft 427 kts 232°
2026-04-29 19:43 -24.12837 -44.17482 35993 ft 426 kts 232°
2026-04-29 19:43 -24.17050 -44.22046 35986 ft 425 kts 232°
2026-04-29 19:44 -24.21243 -44.26596 35993 ft 424 kts 232°
2026-04-29 19:44 -24.25428 -44.31144 35992 ft 423 kts 232°
2026-04-29 19:45 -24.29599 -44.35679 35994 ft 422 kts 232°
2026-04-29 19:45 -24.33056 -44.39443 35992 ft 421 kts 232°
2026-04-29 19:46 -24.37201 -44.43959 35999 ft 420 kts 232°
2026-04-29 19:46 -24.41338 -44.48473 35992 ft 419 kts 232°
2026-04-29 19:47 -24.45465 -44.52978 35991 ft 418 kts 233°
2026-04-29 19:47 -24.49581 -44.57476 35991 ft 417 kts 233°
2026-04-29 19:48 -24.53659 -44.62002 35997 ft 416 kts 233°
2026-04-29 19:48 -24.57711 -44.66540 35990 ft 416 kts 233°
2026-04-29 19:49 -24.61767 -44.71084 35998 ft 416 kts 233°
2026-04-29 19:49 -24.65818 -44.75622 35999 ft 416 kts 233°
2026-04-29 19:50 -24.69867 -44.80159 36006 ft 416 kts 233°
2026-04-29 19:50 -24.73917 -44.84701 36000 ft 416 kts 233°
2026-04-29 19:51 -24.77965 -44.89245 36000 ft 416 kts 233°
2026-04-29 19:51 -24.82011 -44.93792 36026 ft 416 kts 233°
2026-04-29 19:52 -24.86056 -44.98343 36003 ft 416 kts 234°
2026-04-29 19:52 -24.90105 -45.02901 35996 ft 416 kts 234°
2026-04-29 19:53 -24.94153 -45.07463 35999 ft 416 kts 234°
2026-04-29 19:53 -24.98198 -45.12027 35993 ft 416 kts 234°
2026-04-29 19:54 -25.04268 -45.18884 35997 ft 416 kts 234°
2026-04-29 19:54 -25.08314 -45.23460 36002 ft 417 kts 234°
2026-04-29 19:55 -25.12364 -45.28046 36000 ft 417 kts 234°
2026-04-29 19:55 -25.16413 -45.32635 36004 ft 417 kts 234°
2026-04-29 19:56 -25.20463 -45.37229 35997 ft 418 kts 234°
2026-04-29 19:56 -25.24513 -45.41829 36007 ft 418 kts 234°
2026-04-29 19:57 -25.27880 -45.45656 35999 ft 418 kts 234°
2026-04-29 19:57 -25.32614 -45.51043 35999 ft 418 kts 234°
2026-04-29 19:58 -25.36658 -45.55650 36002 ft 418 kts 234°
2026-04-29 19:58 -25.40702 -45.60261 36016 ft 417 kts 234°
2026-04-29 19:59 -25.44717 -45.64844 36004 ft 417 kts 234°
2026-04-29 19:59 -25.48754 -45.69457 36003 ft 417 kts 234°
2026-04-29 20:00 -25.52785 -45.74068 36029 ft 416 kts 235°
2026-04-29 20:00 -25.56811 -45.78678 36028 ft 416 kts 235°
2026-04-29 20:01 -25.60831 -45.83287 36007 ft 416 kts 235°
2026-04-29 20:01 -25.64846 -45.87894 36004 ft 415 kts 236°
2026-04-29 20:02 -25.68850 -45.92491 36004 ft 414 kts 236°
2026-04-29 20:02 -25.72197 -45.96338 36007 ft 413 kts 236°
2026-04-29 20:03 -25.76837 -46.01680 36007 ft 414 kts 236°
2026-04-29 20:03 -25.80825 -46.06277 36006 ft 414 kts 236°
2026-04-29 20:04 -25.84815 -46.10881 36007 ft 414 kts 236°
2026-04-29 20:04 -25.88805 -46.15489 36005 ft 414 kts 236°
2026-04-29 20:05 -25.92796 -46.20103 36010 ft 415 kts 236°
2026-04-29 20:05 -25.96792 -46.24729 36006 ft 416 kts 236°
2026-04-29 20:06 -26.00800 -46.29373 36004 ft 416 kts 236°
2026-04-29 20:06 -26.04812 -46.34026 36003 ft 417 kts 236°
2026-04-29 20:07 -26.08829 -46.38689 36016 ft 418 kts 236°
2026-04-29 20:07 -26.12849 -46.43362 36003 ft 418 kts 236°
2026-04-29 20:08 -26.16218 -46.47280 35999 ft 418 kts 236°
2026-04-29 20:08 -26.20884 -46.52714 36004 ft 418 kts 236°
2026-04-29 20:09 -26.24895 -46.57391 36020 ft 417 kts 236°
2026-04-29 20:09 -26.28899 -46.62065 36009 ft 417 kts 236°
2026-04-29 20:10 -26.32897 -46.66737 36007 ft 416 kts 237°
2026-04-29 20:10 -26.36883 -46.71400 35998 ft 415 kts 237°
2026-04-29 20:11 -26.40862 -46.76058 35996 ft 414 kts 237°
2026-04-29 20:11 -26.44828 -46.80706 35997 ft 413 kts 237°
2026-04-29 20:12 -26.48784 -46.85348 35993 ft 412 kts 237°
2026-04-29 20:12 -26.52733 -46.89989 35994 ft 412 kts 237°
2026-04-29 20:13 -26.56011 -46.93844 35994 ft 412 kts 237°
2026-04-29 20:13 -26.60614 -46.99264 35999 ft 411 kts 237°
2026-04-29 20:14 -26.64543 -47.03916 35996 ft 412 kts 237°
2026-04-29 20:14 -26.68471 -47.08579 35995 ft 412 kts 237°
2026-04-29 20:15 -26.72403 -47.13246 36006 ft 413 kts 237°
2026-04-29 20:15 -26.76341 -47.17938 36000 ft 414 kts 237°
2026-04-29 20:16 -26.80289 -47.22651 35999 ft 416 kts 237°
2026-04-29 20:16 -26.84248 -47.27380 35994 ft 417 kts 237°
2026-04-29 20:17 -26.88217 -47.32120 35997 ft 418 kts 236°
2026-04-29 20:17 -26.90422 -47.34316 35998 ft 431 kts 228°
2026-04-29 20:17 -26.92818 -47.36279 35999 ft 434 kts 226°
2026-04-29 20:18 -26.97825 -47.40175 36008 ft 435 kts 226°
2026-04-29 20:18 -27.02760 -47.44097 35789 ft 438 kts 226°
2026-04-29 20:19 -27.05212 -47.46088 35157 ft 442 kts 226°
2026-04-29 20:19 -27.07697 -47.48110 34491 ft 442 kts 227°
2026-04-29 20:19 -27.10187 -47.50140 33665 ft 444 kts 226°
2026-04-29 20:19 -27.12688 -47.52179 32817 ft 445 kts 226°
2026-04-29 20:20 -27.15197 -47.54222 31982 ft 445 kts 226°
2026-04-29 20:20 -27.17645 -47.56327 31120 ft 437 kts 232°
2026-04-29 20:20 -27.19574 -47.58870 30192 ft 425 kts 242°
2026-04-29 20:20 -27.21352 -47.61536 29090 ft 427 kts 242°
2026-04-29 20:21 -27.23129 -47.64175 28420 ft 419 kts 241°
2026-04-29 20:21 -27.24891 -47.66759 27687 ft 414 kts 241°
2026-04-29 20:21 -27.26638 -47.69301 27009 ft 408 kts 240°
2026-04-29 20:21 -27.28366 -47.71808 26340 ft 403 kts 240°
2026-04-29 20:22 -27.30072 -47.74283 25677 ft 398 kts 240°
2026-04-29 20:22 -27.31758 -47.76732 25030 ft 394 kts 240°
2026-04-29 20:22 -27.33432 -47.79162 24370 ft 391 kts 239°
2026-04-29 20:22 -27.35089 -47.81570 23719 ft 389 kts 240°
2026-04-29 20:23 -27.36736 -47.83972 22962 ft 386 kts 240°
2026-04-29 20:23 -27.38339 -47.86376 22268 ft 382 kts 240°
2026-04-29 20:23 -27.39914 -47.88769 21597 ft 379 kts 240°
2026-04-29 20:23 -27.41474 -47.91150 20950 ft 376 kts 240°
2026-04-29 20:24 -27.43020 -47.93510 20312 ft 373 kts 240°
2026-04-29 20:24 -27.44554 -47.95848 19682 ft 369 kts 240°
2026-04-29 20:24 -27.45896 -47.98282 18815 ft 365 kts 249°
2026-04-29 20:24 -27.46805 -48.00964 17665 ft 370 kts 258°
2026-04-29 20:25 -27.47400 -48.03785 16784 ft 369 kts 260°
2026-04-29 20:25 -27.47978 -48.06578 16054 ft 364 kts 259°
2026-04-29 20:25 -27.48554 -48.09338 15288 ft 361 kts 259°
2026-04-29 20:25 -27.49131 -48.12080 14507 ft 359 kts 258°
2026-04-29 20:26 -27.49709 -48.14808 13795 ft 357 kts 258°
2026-04-29 20:26 -27.50285 -48.17517 13018 ft 354 kts 258°
2026-04-29 20:26 -27.50851 -48.20177 12162 ft 344 kts 258°
2026-04-29 20:26 -27.51404 -48.22770 11371 ft 334 kts 258°
2026-04-29 20:27 -27.51932 -48.25247 10806 ft 318 kts 258°
2026-04-29 20:27 -27.52106 -48.26063 10520 ft 317 kts 258°
2026-04-29 20:27 -27.52933 -48.29957 9925 ft 293 kts 259°
2026-04-29 20:27 -27.53393 -48.32136 9821 ft 278 kts 261°
2026-04-29 20:28 -27.53420 -48.34240 9611 ft 265 kts 278°
2026-04-29 20:28 -27.53243 -48.35596 9358 ft 263 kts 279°
2026-04-29 20:28 -27.52961 -48.37639 8894 ft 264 kts 279°
2026-04-29 20:28 -27.52679 -48.39685 8478 ft 264 kts 279°
2026-04-29 20:29 -27.52403 -48.41728 8086 ft 263 kts 279°
2026-04-29 20:29 -27.52129 -48.43784 7669 ft 261 kts 279°
2026-04-29 20:29 -27.51864 -48.45806 7233 ft 260 kts 279°
2026-04-29 20:29 -27.51603 -48.47823 6851 ft 260 kts 279°
2026-04-29 20:30 -27.51342 -48.49832 6496 ft 259 kts 280°
2026-04-29 20:30 -27.51083 -48.51829 6161 ft 256 kts 280°
2026-04-29 20:30 -27.50827 -48.53807 5829 ft 254 kts 280°
2026-04-29 20:30 -27.50579 -48.55730 5711 ft 243 kts 280°
2026-04-29 20:31 -27.50342 -48.57574 5591 ft 233 kts 280°
2026-04-29 20:31 -27.50117 -48.59315 5505 ft 222 kts 280°
2026-04-29 20:31 -27.49898 -48.61003 5378 ft 214 kts 280°
2026-04-29 20:31 -27.49687 -48.62633 5250 ft 206 kts 280°
2026-04-29 20:32 -27.49555 -48.64189 5126 ft 196 kts 265°
2026-04-29 20:32 -27.50083 -48.65567 4930 ft 192 kts 236°
2026-04-29 20:32 -27.51067 -48.66562 4675 ft 189 kts 218°
2026-04-29 20:32 -27.52179 -48.67322 4337 ft 184 kts 217°
2026-04-29 20:33 -27.53459 -48.67462 4048 ft 197 kts 175°
2026-04-29 20:33 -27.54741 -48.67501 4108 ft 182 kts 201°
2026-04-29 20:33 -27.55896 -48.68074 4096 ft 178 kts 207°
2026-04-29 20:33 -27.57045 -48.68629 4015 ft 182 kts 206°
2026-04-29 20:34 -27.58201 -48.69179 3778 ft 180 kts 204°
2026-04-29 20:34 -27.59444 -48.69383 3166 ft 192 kts 166°
2026-04-29 20:34 -27.60476 -48.68474 2684 ft 189 kts 114°
2026-04-29 20:34 -27.60686 -48.67088 2416 ft 173 kts 93°
2026-04-29 20:35 -27.60994 -48.65834 2186 ft 160 kts 114°
2026-04-29 20:35 -27.61462 -48.64740 2022 ft 150 kts 117°
2026-04-29 20:35 -27.61965 -48.63744 1817 ft 143 kts 120°
2026-04-29 20:35 -27.62479 -48.62774 1609 ft 144 kts 121°
2026-04-29 20:36 -27.62994 -48.61811 1416 ft 143 kts 121°
2026-04-29 20:36 -27.63508 -48.60850 1239 ft 143 kts 121°
2026-04-29 20:36 -27.64020 -48.59892 1045 ft 141 kts 120°
2026-04-29 20:36 -27.64533 -48.58932 867 ft 144 kts 121°
2026-04-29 20:37 -27.65052 -48.57968 661 ft 143 kts 120°
2026-04-29 20:37 -27.65559 -48.57016 464 ft 140 kts 120°
2026-04-29 20:37 -27.66061 -48.56076 275 ft 140 kts 120°
2026-04-29 20:37 -27.66573 -48.55121 69 ft 143 kts 120°
2026-04-29 20:38 -27.67053 -48.54225 26 ft 112 kts 121°
2026-04-29 20:38 -27.67341 -48.53691 25 ft 45 kts 122°
2026-04-29 20:38 -27.67496 -48.53407 29 ft 38 kts 121°
2026-04-29 20:38 -27.67617 -48.53183 29 ft 26 kts 121°
2026-04-29 20:39 -27.67693 -48.53079 26 ft 12 kts 173°
2026-04-29 20:39 -27.67765 -48.53122 26 ft 12 kts 216°
2026-04-29 20:39 -27.67807 -48.53192 28 ft 11 kts 274°
2026-04-29 20:39 -27.67773 -48.53271 27 ft 11 kts 300°
2026-04-29 20:40 -27.67732 -48.53344 28 ft 11 kts 303°
2026-04-29 20:40 -27.67685 -48.53427 28 ft 14 kts 303°
2026-04-29 20:40 -27.67630 -48.53523 28 ft 15 kts 302°
2026-04-29 20:40 -27.67577 -48.53620 26 ft 14 kts 301°
2026-04-29 20:41 -27.67519 -48.53724 28 ft 17 kts 302°
2026-04-29 20:41 -27.67453 -48.53840 29 ft 18 kts 301°
2026-04-29 20:41 -27.67391 -48.53958 26 ft 17 kts 301°
2026-04-29 20:41 -27.67329 -48.54071 30 ft 17 kts 301°
2026-04-29 20:42 -27.67270 -48.54180 28 ft 16 kts 301°
2026-04-29 20:42 -27.67217 -48.54279 29 ft 13 kts 300°
2026-04-29 20:42 -27.67238 -48.54344 30 ft 10 kts 213°
2026-04-29 20:42 -27.67292 -48.54384 29 ft 9 kts 230°
2026-04-29 20:43 -27.67280 -48.54450 28 ft 9 kts 301°
2026-04-29 20:43 -27.67281 -48.54488 27 ft 5 kts 216°
2026-04-29 20:43 -27.67305 -48.54504 26 ft 2 kts 211°
2026-04-29 20:43 -27.67309 -48.54506 26 ft 0 kts 211°
2026-04-29 20:44 -27.67310 -48.54507 26 ft 0 kts 211°